When you browse on this site, cookies collect data to enhance your experience and personalize the content and advertising you see.
Visit our Privacy Policy to learn more. By continuing to use the site, you agree to this use of cookies and data.
  • In United Kingdom
  • List of Countries
  • For 7 days
  • Water Temperature
  • Satellite Maps
  • Weather Map
  • Weather Widgets
  • user-avatar
    Login

    Hourly Weather Cardiff

    Today, 19 April, Friday

    Time Temperature Precipitation Wind Pressure Humidity
    00:00 +11°C° 0 mm 4 mps 767 mmHg 77%
    01:00 +11°C° 0 mm 4 mps 767 mmHg 78%
    02:00 +10°C° 0 mm 4 mps 767 mmHg 79%
    03:00 +8°C° 0 mm 4 mps 767 mmHg 80%
    04:00 +8°C° 0 mm 4 mps 768 mmHg 81%
    05:00 +8°C° 0 mm 4 mps 768 mmHg 82%
    06:00 +8°C° 0 mm 4 mps 768 mmHg 83%
    07:00 +11°C° 0 mm 4 mps 768 mmHg 80%
    08:00 +12°C° 0 mm 4 mps 769 mmHg 78%
    09:00 +14°C° 0 mm 4 mps 769 mmHg 75%
    10:00 +15°C° 0 mm 4 mps 769 mmHg 72%
    11:00 +18°C° 0 mm 4 mps 769 mmHg 69%
    12:00 +20°C° 0 mm 4 mps 770 mmHg 66%
    13:00 +20°C° 0 mm 3 mps 770 mmHg 64%
    14:00 +21°C° 0 mm 3 mps 770 mmHg 62%
    15:00 +21°C° 0 mm 3 mps 770 mmHg 60%
    16:00 +21°C° 0 mm 2 mps 770 mmHg 65%
    17:00 +20°C° 0 mm 2 mps 770 mmHg 70%
    18:00 +19°C° 0 mm 2 mps 770 mmHg 75%
    19:00 +18°C° 0 mm 2 mps 770 mmHg 78%
    20:00 +17°C° 0 mm 2 mps 771 mmHg 81%
    21:00 +15°C° 0 mm 2 mps 771 mmHg 84%
    22:00 +15°C° 0 mm 2 mps 771 mmHg 85%
    23:00 +14°C° 0 mm 2 mps 771 mmHg 86%

    Tomorrow, 20 April, Saturday

    Time Temperature Precipitation Wind Pressure Humidity
    00:00 +14°C° 0 mm 2 mps 771 mmHg 88%
    01:00 +13°C° 0 mm 2 mps 771 mmHg 88%
    02:00 +13°C° 0 mm 2 mps 771 mmHg 88%
    03:00 +12°C° 0 mm 2 mps 771 mmHg 89%
    04:00 +12°C° 0 mm 2 mps 771 mmHg 89%
    05:00 +12°C° 0 mm 2 mps 772 mmHg 89%
    06:00 +12°C° 0 mm 2 mps 772 mmHg 89%
    07:00 +13°C° 0 mm 2 mps 772 mmHg 84%
    08:00 +15°C° 0 mm 2 mps 772 mmHg 79%
    09:00 +17°C° 0 mm 3 mps 771 mmHg 74%
    10:00 +18°C° 0 mm 3 mps 771 mmHg 69%
    11:00 +19°C° 0 mm 3 mps 771 mmHg 64%
    12:00 +20°C° 0 mm 3 mps 771 mmHg 59%
    13:00 +21°C° 0 mm 3 mps 771 mmHg 58%
    14:00 +21°C° 0 mm 3 mps 770 mmHg 57%
    15:00 +21°C° 0 mm 3 mps 770 mmHg 56%
    16:00 +20°C° 0 mm 3 mps 770 mmHg 61%
    17:00 +20°C° 0 mm 2 mps 769 mmHg 67%
    18:00 +19°C° 0 mm 2 mps 769 mmHg 72%
    19:00 +17°C° 0 mm 2 mps 769 mmHg 75%
    20:00 +16°C° 0 mm 2 mps 769 mmHg 78%
    21:00 +14°C° 0 mm 2 mps 769 mmHg 81%
    22:00 +14°C° 0 mm 2 mps 769 mmHg 82%
    23:00 +13°C° 0 mm 2 mps 769 mmHg 84%

    Day after tomorrow, 21 April, Sunday

    Time Temperature Precipitation Wind Pressure Humidity
    00:00 +13°C° 0 mm 2 mps 768 mmHg 85%
    01:00 +13°C° 0 mm 2 mps 768 mmHg 87%
    02:00 +12°C° 0 mm 2 mps 767 mmHg 89%
    03:00 +12°C° 0 mm 1 mps 767 mmHg 91%
    04:00 +12°C° 0 mm 1 mps 767 mmHg 90%
    05:00 +11°C° 0 mm 1 mps 766 mmHg 89%
    06:00 +11°C° 0 mm 1 mps 766 mmHg 88%
    07:00 +13°C° 0 mm 1 mps 766 mmHg 82%
    08:00 +15°C° 0 mm 2 mps 765 mmHg 75%
    09:00 +16°C° 0 mm 2 mps 765 mmHg 69%
    10:00 +17°C° 0 mm 2 mps 765 mmHg 65%
    11:00 +18°C° 0 mm 2 mps 764 mmHg 61%
    12:00 +19°C° 0 mm 2 mps 764 mmHg 57%
    13:00 +20°C° 0 mm 2 mps 763 mmHg 55%
    14:00 +20°C° 0 mm 2 mps 762 mmHg 54%
    15:00 +20°C° 0 mm 2 mps 762 mmHg 52%
    16:00 +21°C° 0 mm 1 mps 761 mmHg 58%
    17:00 +20°C° 0 mm 1 mps 761 mmHg 64%
    18:00 +20°C° 0 mm 1 mps 760 mmHg 70%
    19:00 +18°C° 0 mm 1 mps 760 mmHg 76%
    20:00 +15°C° 0 mm 1 mps 760 mmHg 81%
    21:00 +14°C° 0 mm 1 mps 760 mmHg 86%
    22:00 +13°C° 0 mm 1 mps 759 mmHg 87%
    23:00 +13°C° 0 mm 2 mps 758 mmHg 89%

    22 April, Monday

    Time Temperature Precipitation Wind Pressure Humidity
    00:00 +12°C° 0 mm 2 mps 758 mmHg 90%
    01:00 +12°C° 0 mm 2 mps 757 mmHg 91%
    02:00 +10°C° 0 mm 2 mps 756 mmHg 92%
    03:00 +9°C° 0 mm 2 mps 755 mmHg 93%
    04:00 +9°C° 0 mm 3 mps 755 mmHg 93%
    05:00 +9°C° 0 mm 3 mps 754 mmHg 93%
    06:00 +9°C° 0 mm 3 mps 754 mmHg 94%
    07:00 +11°C° 0 mm 3 mps 754 mmHg 89%
    08:00 +13°C° 0 mm 3 mps 753 mmHg 84%
    09:00 +15°C° 0 mm 4 mps 753 mmHg 79%
    10:00 +17°C° 0 mm 4 mps 752 mmHg 74%
    11:00 +19°C° 0 mm 5 mps 752 mmHg 69%
    12:00 +20°C° 0 mm 5 mps 751 mmHg 64%
    13:00 +20°C° 0 mm 5 mps 751 mmHg 62%
    14:00 +20°C° 0 mm 5 mps 750 mmHg 61%
    15:00 +20°C° 0 mm 5 mps 750 mmHg 60%
    16:00 +20°C° 0 mm 4 mps 749 mmHg 64%
    17:00 +19°C° 0 mm 4 mps 749 mmHg 69%
    18:00 +18°C° 0 mm 3 mps 749 mmHg 73%
    19:00 +17°C° 0 mm 3 mps 749 mmHg 77%
    20:00 +14°C° 0 mm 3 mps 749 mmHg 81%
    21:00 +13°C° 0 mm 3 mps 748 mmHg 85%
    22:00 +12°C° 0 mm 4 mps 748 mmHg 85%
    23:00 +12°C° 0 mm 4 mps 748 mmHg 85%

    23 April, Tuesday

    Time Temperature Precipitation Wind Pressure Humidity
    00:00 +11°C° 0 mm 4 mps 747 mmHg 85%
    01:00 +11°C° 0 mm 4 mps 747 mmHg 86%
    02:00 +10°C° 0 mm 4 mps 747 mmHg 87%
    03:00 +10°C° 0 mm 4 mps 746 mmHg 89%
    04:00 +10°C° 0 mm 4 mps 746 mmHg 89%
    05:00 +10°C° 0 mm 4 mps 746 mmHg 90%
    06:00 +10°C° 0 mm 3 mps 746 mmHg 91%
    07:00 +12°C° 0 mm 3 mps 747 mmHg 88%
    08:00 +13°C° 0 mm 3 mps 747 mmHg 85%
    09:00 +16°C° 0 mm 3 mps 747 mmHg 82%
    10:00 +17°C° 0.5 mm 2 mps 747 mmHg 78%
    11:00 +18°C° 0.5 mm 2 mps 747 mmHg 74%
    12:00 +19°C° 0.5 mm 2 mps 746 mmHg 71%
    13:00 +19°C° 1.3 mm 2 mps 746 mmHg 71%
    14:00 +19°C° 1.3 mm 2 mps 746 mmHg 71%
    15:00 +19°C° 1.3 mm 2 mps 746 mmHg 71%
    16:00 +19°C° 1.1 mm 2 mps 746 mmHg 75%
    17:00 +18°C° 1.1 mm 2 mps 746 mmHg 79%
    18:00 +17°C° 1.1 mm 2 mps 746 mmHg 83%
    19:00 +16°C° 0.4 mm 2 mps 746 mmHg 86%
    20:00 +15°C° 0.4 mm 2 mps 746 mmHg 89%
    21:00 +14°C° 0.4 mm 2 mps 746 mmHg 91%
    22:00 +12°C° 0 mm 3 mps 746 mmHg 92%
    23:00 +12°C° 0 mm 3 mps 746 mmHg 93%

    24 April, Wednesday

    Time Temperature Precipitation Wind Pressure Humidity
    00:00 +12°C° 0 mm 3 mps 746 mmHg 94%
    01:00 +11°C° 0 mm 3 mps 746 mmHg 95%
    02:00 +11°C° 0 mm 4 mps 746 mmHg 95%
    03:00 +10°C° 0 mm 4 mps 746 mmHg 96%
    04:00 +10°C° 0 mm 4 mps 746 mmHg 96%
    05:00 +11°C° 0 mm 4 mps 746 mmHg 96%
    06:00 +11°C° 0 mm 4 mps 746 mmHg 96%
    07:00 +10°C° 0.4 mm 5 mps 746 mmHg 96%
    08:00 +12°C° 0.4 mm 5 mps 747 mmHg 95%
    09:00 +11°C° 0.4 mm 6 mps 747 mmHg 95%
    10:00 +13°C° 0.1 mm 6 mps 748 mmHg 88%
    11:00 +12°C° 0.1 mm 7 mps 748 mmHg 81%
    12:00 +13°C° 0.1 mm 8 mps 749 mmHg 75%
    13:00 +13°C° 0 mm 8 mps 749 mmHg 71%
    14:00 +13°C° 0 mm 8 mps 749 mmHg 68%
    15:00 +13°C° 0 mm 9 mps 749 mmHg 65%
    16:00 +13°C° 0.1 mm 8 mps 749 mmHg 69%
    17:00 +12°C° 0.1 mm 7 mps 748 mmHg 73%
    18:00 +11°C° 0.1 mm 6 mps 748 mmHg 77%
    19:00 +12°C° 0 mm 5 mps 749 mmHg 80%
    20:00 +10°C° 0 mm 5 mps 749 mmHg 82%
    21:00 +10°C° 0 mm 4 mps 749 mmHg 85%
    22:00 +10°C° 0 mm 4 mps 749 mmHg 87%
    23:00 +8°C° 0 mm 4 mps 749 mmHg 88%
    Show more